Darstellungsparameter: Aktuell verwendete Einstellungen:
Skalierung der Graphiken ... ?
xyx+y,   Skalierungsfaktor:      Skalierung: Modus: x, Faktor: 1
Darstellungszeitraum ... ?
Vom - - bis: - -   Zeitraum: 01.01.2015 - 31.12.2016
Min/Max/Avg-Anzeige ... ?
Zeige MMA aktuell
Zeige MMA Monat
Zeige MMA alles
Zeige --A aktuell
Zeige --A Monat
Zeige --A alles
Keine MMA-Anzeige
MMA:
Keine MMA-Graphiken
MMA-Basis: 01.01.2015 - 31.12.2016
Quicknavigation für Darstellung... ?
Tage:      1T, 2T, 3T, 5T -1T -2T -3T -5T +1T +2T +3T +5T
Wochen: 1W, 2W, 3W -1W -2W -3W +1W +2W +3W
Monate: 1M, 3M, 6M -1M -3M -6M +1M +3M +6M
Jahre:    1J, 3J, 5J, 10J -1J -3J -5J -10J +1J +3J +5J +10J
Nutze für die Darstellung ... ?
Originaldaten oder ...
Mittelwerte Minima Maxima auf...
Stundenbasis Tagesbasis Wochenbasis
Monatsbasis Jahresbasis      Datenbasis: Mittelwerte auf Tagesbasis
Darstellen als:
Statistik (Auto) Statistik J:M      Darstellung:
Zur Graphik,    zurück zur Übersicht aller Sensoren.
 
Tabellarische Datenbersicht: ?
 
Sensor: Nr:Datum:Temp:Abs-Feuchte:Windchill:Wind:
Aussen-T/F 1 01-01-2015 00:00:00 1.89397 C 5.32 g/m*3 1.89 C 1.90517 km/h
2 02-01-2015 00:00:00 3.6411 C 5.53 g/m*3 -0.26 C 17.13767 km/h
3 03-01-2015 00:00:00 1.94125 C 5.24 g/m*3 1.94 C 4.05563 km/h
4 04-01-2015 00:00:00 2.94172 C 5.55 g/m*3 2.94 C 4.26258 km/h
5 05-01-2015 00:00:00 -0.02447 C 4.6 g/m*3 -0.02 C 2.20106 km/h
6 06-01-2015 00:00:00 0.48846 C 4.64 g/m*3 -2.1 C 7.80577 km/h
7 07-01-2015 00:00:00 2.52604 C 5.32 g/m*3 1.03 C 5.60302 km/h
8 08-01-2015 00:00:00 6.62222 C 7.01 g/m*3 4.67 C 9.65694 km/h
9 09-01-2015 00:00:00 9.27879 C 7.71 g/m*3 6.64 C 18.31742 km/h
10 10-01-2015 00:00:00 13.56872 C 9.75 g/m*3 13.57 C 20.23128 km/h
11 11-01-2015 00:00:00 5.45068 C 5.34 g/m*3 2.3 C 15.025 km/h
12 12-01-2015 00:00:00 6.91962 C 6.43 g/m*3 4.05 C 15.49623 km/h
13 13-01-2015 00:00:00 10.09231 C 7.13 g/m*3 8 C 15.25385 km/h
14 14-01-2015 00:00:00 5.9911 C 6.14 g/m*3 3.38 C 12.45466 km/h
15 15-01-2015 00:00:00 10.14352 C 7.22 g/m*3 7.78 C 17.71852 km/h
16 16-01-2015 00:00:00 6.66424 C 6.7 g/m*3 6.66 C 2.96111 km/h
17 17-01-2015 00:00:00 3.35174 C 5.57 g/m*3 3.35 C 3.18576 km/h
18 18-01-2015 00:00:00 1.91111 C 4.67 g/m*3 1.91 C 3.82014 km/h
19 19-01-2015 00:00:00 0.89028 C 4.6 g/m*3 0.89 C 2.03229 km/h
20 20-01-2015 00:00:00 0.86285 C 4.67 g/m*3 0.86 C 1.33021 km/h
21 21-01-2015 00:00:00 -0.0414 C 4.29 g/m*3 -0.04 C 1.65158 km/h
22 22-01-2015 00:00:00 1.45625 C 4.54 g/m*3 1.46 C 3.13889 km/h
23 23-01-2015 00:00:00 1.33299 C 4.76 g/m*3 1.33 C 2.80208 km/h
24 24-01-2015 00:00:00 1.04056 C 4.77 g/m*3 -0.73 C 5.74337 km/h
25 25-01-2015 00:00:00 2.19444 C 5.31 g/m*3 2.19 C 4.22049 km/h
Sensor: Nr:Datum:Temp:Abs-Feuchte:Windchill:Wind:
Aussen-T/F 26 26-01-2015 00:00:00 3.05694 C 5.67 g/m*3 0.91 C 7.78264 km/h
27 27-01-2015 00:00:00 3.85208 C 5.9 g/m*3 3.85 C 4.30729 km/h
28 28-01-2015 00:00:00 4.1184 C 5.82 g/m*3 2.1 C 8.01285 km/h
29 29-01-2015 00:00:00 3.03715 C 5.26 g/m*3 0.69 C 8.50625 km/h
30 30-01-2015 00:00:00 1.92569 C 5 g/m*3 0.2 C 5.97153 km/h
31 31-01-2015 00:00:00 2.07143 C 4.89 g/m*3 -0.34 C 8.10635 km/h
32 01-02-2015 00:00:00 2.04274 C 5.19 g/m*3 2.04 C 4.15726 km/h
33 02-02-2015 00:00:00 2.35794 C 5.07 g/m*3 0.46 C 6.64881 km/h
34 03-02-2015 00:00:00 0.88769 C 4.67 g/m*3 0.89 C 1.89744 km/h
35 04-02-2015 00:00:00 0.04848 C 4.23 g/m*3 0.05 C 4.45152 km/h
36 05-02-2015 00:00:00 -1.86778 C 3.56 g/m*3 -4.4 C 6.55111 km/h
37 06-02-2015 00:00:00 0.42153 C 3.48 g/m*3 -2.87 C 10.225 km/h
38 07-02-2015 00:00:00 -0.6316 C 3.75 g/m*3 -0.63 C 4.67222 km/h
39 08-02-2015 00:00:00 3.19444 C 4.92 g/m*3 0.43 C 10.28889 km/h
40 09-02-2015 00:00:00 4.06597 C 5.81 g/m*3 4.07 C 4.70139 km/h
41 10-02-2015 00:00:00 4.96528 C 6.22 g/m*3 4.97 C 2.52674 km/h
42 11-02-2015 00:00:00 3.82917 C 5.48 g/m*3 3.83 C 2.88576 km/h
43 12-02-2015 00:00:00 2.75556 C 5.23 g/m*3 2.76 C 2.66979 km/h
44 13-02-2015 00:00:00 2.27396 C 5.05 g/m*3 2.27 C 3.31458 km/h
45 14-02-2015 00:00:00 3.73438 C 5.41 g/m*3 3.73 C 4.48993 km/h
46 15-02-2015 00:00:00 1.72778 C 4.87 g/m*3 1.73 C 2.99688 km/h
47 16-02-2015 00:00:00 1.82744 C 4.86 g/m*3 1.83 C 2.50253 km/h
48 17-02-2015 00:00:00 3.31146 C 5.36 g/m*3 3.31 C 2.30903 km/h
49 18-02-2015 00:00:00 4.09479 C 5.7 g/m*3 4.09 C 1.95556 km/h
50 19-02-2015 00:00:00 0.94861 C 4.56 g/m*3 0.95 C 3.9875 km/h
Sensor: Nr:Datum:Temp:Abs-Feuchte:Windchill:Wind:
Aussen-T/F 51 20-02-2015 00:00:00 6.96389 C 6.01 g/m*3 6.02 C 5.88299 km/h
52 21-02-2015 00:00:00 5.27535 C 5.92 g/m*3 4.35 C 5.1316 km/h
53 22-02-2015 00:00:00 3.72083 C 5.16 g/m*3 3.72 C 3.02569 km/h
54 23-02-2015 00:00:00 3.46944 C 5.46 g/m*3 3.47 C 3.4316 km/h
55 24-02-2015 00:00:00 4.88611 C 5.73 g/m*3 2.69 C 9.24757 km/h
56 25-02-2015 00:00:00 4.28403 C 5.77 g/m*3 4.28 C 4.60903 km/h
57 26-02-2015 00:00:00 6.06354 C 6.54 g/m*3 6.06 C 2.2059 km/h
58 27-02-2015 00:00:00 5.01736 C 6.24 g/m*3 3.98 C 5.31319 km/h
59 28-02-2015 00:00:00 2.37187 C 4.89 g/m*3 2.37 C 4.01875 km/h
60 01-03-2015 00:00:00 7.71493 C 6.56 g/m*3 6.38 C 7.74549 km/h
61 02-03-2015 00:00:00 6.14653 C 5.83 g/m*3 3.74 C 11.49028 km/h
62 03-03-2015 00:00:00 5.52812 C 5.51 g/m*3 2.97 C 11.61563 km/h
63 04-03-2015 00:00:00 4.51771 C 5.45 g/m*3 2.36 C 8.80347 km/h
64 05-03-2015 00:00:00 5.08681 C 5.68 g/m*3 3.83 C 5.97743 km/h
65 06-03-2015 00:00:00 4.14931 C 5.4 g/m*3 4.15 C 2.11424 km/h
66 07-03-2015 00:00:00 4.96007 C 5.52 g/m*3 4.96 C 2.44757 km/h
67 08-03-2015 00:00:00 6.05625 C 6.05 g/m*3 6.06 C 1.36181 km/h
68 09-03-2015 00:00:00 7.81354 C 6.91 g/m*3 7.81 C 2.38021 km/h
69 10-03-2015 00:00:00 5.56319 C 6.83 g/m*3 5.56 C 0.71111 km/h
70 11-03-2015 00:00:00 4.39549 C 5.7 g/m*3 4.4 C 1.94618 km/h
71 12-03-2015 00:00:00 3.92222 C 5.22 g/m*3 3.92 C 2.76319 km/h
72 13-03-2015 00:00:00 4.14514 C 4.91 g/m*3 4.15 C 4.83576 km/h
73 14-03-2015 00:00:00 4.55451 C 5.45 g/m*3 4.55 C 3.46875 km/h
74 15-03-2015 00:00:00 4.61042 C 5.92 g/m*3 4.61 C 2.91944 km/h
75 16-03-2015 00:00:00 4.68368 C 5.77 g/m*3 4.68 C 2.40382 km/h
Sensor: Nr:Datum:Temp:Abs-Feuchte:Windchill:Wind:
Aussen-T/F 76 17-03-2015 00:00:00 7.26632 C 6.46 g/m*3 7.27 C 2.26007 km/h
77 18-03-2015 00:00:00 9.08924 C 7.15 g/m*3 9.09 C 3.88542 km/h
78 19-03-2015 00:00:00 7.62431 C 7.42 g/m*3 6.41 C 7.21389 km/h
79 20-03-2015 00:00:00 8.07465 C 6.84 g/m*3 8.07 C 3.93021 km/h
80 21-03-2015 00:00:00 5.69201 C 6.4 g/m*3 5.69 C 3.88542 km/h
81 22-03-2015 00:00:00 5.19792 C 5.68 g/m*3 3.57 C 7.23924 km/h
82 23-03-2015 00:00:00 3.85521 C 5.3 g/m*3 3.86 C 2.90382 km/h
83 24-03-2015 00:00:00 6.94167 C 6.26 g/m*3 6.94 C 2.91528 km/h
84 25-03-2015 00:00:00 7.68056 C 6.81 g/m*3 6.58 C 6.80903 km/h
85 26-03-2015 00:00:00 7.17257 C 6.06 g/m*3 5.64 C 8.2059 km/h
86 27-03-2015 00:00:00 7.64965 C 6.05 g/m*3 5.98 C 9.23854 km/h
87 28-03-2015 00:00:00 8.51667 C 6.75 g/m*3 7.35 C 7.60521 km/h
88 29-03-2015 00:00:00 11.63659 C 8.72 g/m*3 11.64 C 18.53152 km/h
89 30-03-2015 00:00:00 8.21597 C 5.97 g/m*3 6.12 C 12.19757 km/h
90 31-03-2015 00:00:00 10.06181 C 7 g/m*3 7.3 C 21.68507 km/h
91 01-04-2015 00:00:00 6.38924 C 5.24 g/m*3 3.35 C 15.81111 km/h
92 02-04-2015 00:00:00 6.45868 C 5.51 g/m*3 3.6 C 14.65 km/h
93 03-04-2015 00:00:00 5.87951 C 5.14 g/m*3 5.88 C 4.05417 km/h
94 04-04-2015 00:00:00 6.24896 C 5.67 g/m*3 5.11 C 6.17118 km/h
95 05-04-2015 00:00:00 5.21354 C 4.8 g/m*3 5.21 C 4.42118 km/h
96 06-04-2015 00:00:00 5.33542 C 5.34 g/m*3 4.44 C 5.05069 km/h
97 07-04-2015 00:00:00 5.98646 C 5.54 g/m*3 5.99 C 2.74132 km/h
98 08-04-2015 00:00:00 8.43776 C 6.6 g/m*3 8.44 C 3.39685 km/h
99 09-04-2015 00:00:00 11.19653 C 7.82 g/m*3 11.2 C 2.82014 km/h
100 10-04-2015 00:00:00 13.22708 C 7.82 g/m*3 13.23 C 2.98611 km/h
Sensor: Nr:Datum:Temp:Abs-Feuchte:Windchill:Wind:
Aussen-T/F 101 11-04-2015 00:00:00 12.37118 C 7.71 g/m*3 12.37 C 9.77674 km/h
102 12-04-2015 00:00:00 11.34444 C 7.19 g/m*3 11.34 C 5.34861 km/h
103 13-04-2015 00:00:00 11.50104 C 7.22 g/m*3 11.5 C 7.44931 km/h
104 14-04-2015 00:00:00 13.37778 C 7.78 g/m*3 13.38 C 6.35625 km/h
105 15-04-2015 00:00:00 16.43472 C 8.89 g/m*3 16.43 C 5.41354 km/h
106 16-04-2015 00:00:00 15.04757 C 8.96 g/m*3 15.05 C 3.66319 km/h
107 17-04-2015 00:00:00 11.41736 C 6.97 g/m*3 11.42 C 7.43646 km/h
108 18-04-2015 00:00:00 8.60486 C 5.59 g/m*3 8.6 C 4.73021 km/h
109 19-04-2015 00:00:00 9.50903 C 5.72 g/m*3 9.51 C 4.27813 km/h
110 20-04-2015 00:00:00 12.20312 C 6.58 g/m*3 12.2 C 4.43368 km/h
111 21-04-2015 00:00:00 13.69549 C 7.17 g/m*3 13.7 C 3.88438 km/h
112 22-04-2015 00:00:00 10.77465 C 6.86 g/m*3 10.03 C 7.45 km/h
113 23-04-2015 00:00:00 10.84062 C 6.95 g/m*3 10.84 C 2.92813 km/h
114 24-04-2015 00:00:00 13.43403 C 7.3 g/m*3 13.43 C 4.69097 km/h
115 25-04-2015 00:00:00 12.95486 C 9.17 g/m*3 12.95 C 4.39583 km/h
116 26-04-2015 00:00:00 15.34444 C 10.37 g/m*3 15.34 C 5.64549 km/h
117 27-04-2015 00:00:00 10.42014 C 9.13 g/m*3 10.42 C 4.14514 km/h
118 28-04-2015 00:00:00 9.15382 C 6.56 g/m*3 8.76 C 5.09965 km/h
119 29-04-2015 00:00:00 8.3059 C 6.18 g/m*3 8.31 C 2.24132 km/h
120 30-04-2015 00:00:00 9.85764 C 7.53 g/m*3 9.02 C 7.16875 km/h
121 01-05-2015 00:00:00 8.17979 C 6.92 g/m*3 8.18 C 2.25331 km/h
122 02-05-2015 00:00:00 9.88958 C 7.29 g/m*3 9.89 C 1.96319 km/h
123 03-05-2015 00:00:00 13.80469 C 10.72 g/m*3 13.8 C 2.10866 km/h
124 04-05-2015 00:00:00 16.61875 C 11.47 g/m*3 16.62 C 4.02569 km/h
125 05-05-2015 00:00:00 18.45035 C 11.75 g/m*3 18.45 C 8.31319 km/h
Sensor: Nr:Datum:Temp:Abs-Feuchte:Windchill:Wind:
Aussen-T/F 126 06-05-2015 00:00:00 13.3566 C 8.05 g/m*3 13.36 C 8.00278 km/h
127 07-05-2015 00:00:00 13.35764 C 7.64 g/m*3 13.36 C 7.01944 km/h
128 08-05-2015 00:00:00 14.46632 C 8.54 g/m*3 14.47 C 2.17917 km/h
129 09-05-2015 00:00:00 15.2441 C 9.88 g/m*3 15.24 C 7.66458 km/h
130 10-05-2015 00:00:00 14.78229 C 9.51 g/m*3 14.78 C 3.62014 km/h
131 11-05-2015 00:00:00 17.12812 C 10.77 g/m*3 17.13 C 2.08542 km/h
132 12-05-2015 00:00:00 18.0309 C 11.48 g/m*3 18.03 C 5.18785 km/h
133 13-05-2015 00:00:00 14.45208 C 8.38 g/m*3 14.45 C 2.43125 km/h
134 14-05-2015 00:00:00 14.14351 C 8.85 g/m*3 14.14 C 2.80386 km/h
135 15-05-2015 00:00:00 15.02882 C 9.97 g/m*3 15.03 C 6.18542 km/h
136 16-05-2015 00:00:00 12.01528 C 8.4 g/m*3 12.02 C 4.44549 km/h
137 17-05-2015 00:00:00 14.18924 C 8.59 g/m*3 14.19 C 2.83299 km/h
138 18-05-2015 00:00:00 15.27535 C 8.56 g/m*3 15.28 C 6.43993 km/h
139 19-05-2015 00:00:00 13.64941 C 7.16 g/m*3 13.65 C 9.52213 km/h
140 20-05-2015 00:00:00 11.71144 C 7.38 g/m*3 11.71 C 4.75166 km/h
141 21-05-2015 00:00:00 11.60764 C 7.25 g/m*3 11.61 C 5.12847 km/h
142 22-05-2015 00:00:00 15.74722 C 8.2 g/m*3 15.75 C 2.84028 km/h
143 23-05-2015 00:00:00 15.85278 C 9.6 g/m*3 15.85 C 3.09653 km/h
144 24-05-2015 00:00:00 17.02887 C 10.98 g/m*3 17.03 C 3.34789 km/h
145 25-05-2015 00:00:00 13.82968 C 10.51 g/m*3 13.83 C 2.20645 km/h
146 26-05-2015 00:00:00 11.87604 C 8 g/m*3 11.88 C 4.67257 km/h
147 27-05-2015 00:00:00 11.63958 C 7.33 g/m*3 11.64 C 2.82326 km/h
148 28-05-2015 00:00:00 14.21944 C 8.5 g/m*3 14.22 C 5.00625 km/h
149 29-05-2015 00:00:00 13.27367 C 8.77 g/m*3 13.27 C 5.1516 km/h
150 30-05-2015 00:00:00 12.66319 C 7.91 g/m*3 12.66 C 7.02986 km/h
Sensor: Nr:Datum:Temp:Abs-Feuchte:Windchill:Wind:
Aussen-T/F 151 31-05-2015 00:00:00 14.50903 C 9.14 g/m*3 14.51 C 8.0316 km/h
152 01-06-2015 00:00:00 14.86667 C 10.09 g/m*3 14.87 C 4.53472 km/h
153 02-06-2015 00:00:00 16.57639 C 10.34 g/m*3 16.58 C 6.47049 km/h
154 03-06-2015 00:00:00 17.74965 C 10.72 g/m*3 17.75 C 5.28993 km/h
155 04-06-2015 00:00:00 18.54896 C 10.38 g/m*3 18.55 C 3.23854 km/h
156 05-06-2015 00:00:00 22.1191 C 13.26 g/m*3 22.12 C 2.38889 km/h
157 06-06-2015 00:00:00 19.94028 C 13.78 g/m*3 19.94 C 5.78611 km/h
158 07-06-2015 00:00:00 18.04306 C 9.22 g/m*3 18.04 C 5.15938 km/h
159 08-06-2015 00:00:00 16.17222 C 8.78 g/m*3 16.17 C 7.89479 km/h
160 09-06-2015 00:00:00 14.94792 C 7.98 g/m*3 14.95 C 5.97396 km/h
161 10-06-2015 00:00:00 17.10208 C 9.63 g/m*3 17.1 C 3.88889 km/h
162 11-06-2015 00:00:00 19.95895 C 10.65 g/m*3 19.96 C 4.9414 km/h
163 12-06-2015 00:00:00 19.48699 C 13.09 g/m*3 19.49 C 2.45576 km/h
164 13-06-2015 00:00:00 18.63958 C 13.62 g/m*3 18.64 C 3.19896 km/h
165 14-06-2015 00:00:00 19.07708 C 11.26 g/m*3 19.08 C 3.61215 km/h
166 15-06-2015 00:00:00 17.59271 C 11.21 g/m*3 17.59 C 5.50208 km/h
167 16-06-2015 00:00:00 15.68924 C 8.44 g/m*3 15.69 C 6.04444 km/h
168 17-06-2015 00:00:00 15.5816 C 8.72 g/m*3 15.58 C 2.76319 km/h
169 18-06-2015 00:00:00 17.15625 C 10.98 g/m*3 17.16 C 7.23438 km/h
170 19-06-2015 00:00:00 12.7559 C 9.22 g/m*3 12.76 C 3.45729 km/h
171 20-06-2015 00:00:00 13.05547 C 9.33 g/m*3 13.06 C 4.88672 km/h
172 21-06-2015 00:00:00 15.43396 C 11.17 g/m*3 15.43 C 4.89291 km/h
173 22-06-2015 00:00:00 13.19855 C 10.09 g/m*3 13.2 C 5.84073 km/h
174 23-06-2015 00:00:00 11.71206 C 9.65 g/m*3 11.71 C 3.60284 km/h
175 24-06-2015 00:00:00 14.96215 C 10.37 g/m*3 14.96 C 3.02361 km/h
Sensor: Nr:Datum:Temp:Abs-Feuchte:Windchill:Wind:
Aussen-T/F 176 25-06-2015 00:00:00 17.94306 C 11.59 g/m*3 17.94 C 2.5625 km/h
177 26-06-2015 00:00:00 19.40139 C 13.06 g/m*3 19.4 C 2.43542 km/h
178 27-06-2015 00:00:00 20.26461 C 13.16 g/m*3 20.26 C 6.35679 km/h
179 28-06-2015 00:00:00 18.39741 C 11.45 g/m*3 18.4 C 1.70431 km/h
180 29-06-2015 00:00:00 23.63875 C 13.16 g/m*3 23.64 C 6.13688 km/h
181 30-06-2015 00:00:00 21.94847 C 12.24 g/m*3 21.95 C 2.6229 km/h
182 01-07-2015 00:00:00 24.13993 C 13.88 g/m*3 24.14 C 2.98237 km/h
183 02-07-2015 00:00:00 26.83474 C 16.53 g/m*3 26.83 C 2.73684 km/h
184 03-07-2015 00:00:00 28.2408 C 18.03 g/m*3 28.24 C 4.0004 km/h
185 04-07-2015 00:00:00 27.77951 C 18.22 g/m*3 27.78 C 2.66875 km/h
186 05-07-2015 00:00:00 26.75417 C 16.35 g/m*3 26.75 C 6.34028 km/h
187 06-07-2015 00:00:00 23.89674 C 11.72 g/m*3 23.9 C 5.56087 km/h
188 07-07-2015 00:00:00 23.4251 C 13.52 g/m*3 23.43 C 4.52869 km/h
189 08-07-2015 00:00:00 17.62465 C 10.77 g/m*3 17.62 C 12.0309 km/h
190 09-07-2015 00:00:00 16.50669 C 9.6 g/m*3 16.51 C 9.47606 km/h
191 10-07-2015 00:00:00 17.02947 C 8.35 g/m*3 17.03 C 3.11789 km/h
192 11-07-2015 00:00:00 21.24132 C 10.2 g/m*3 21.24 C 3.87326 km/h
193 12-07-2015 00:00:00 19.0157 C 11.63 g/m*3 19.02 C 4.59752 km/h
194 13-07-2015 00:00:00 17.93777 C 13.02 g/m*3 17.94 C 6.44309 km/h
195 14-07-2015 00:00:00 21.06476 C 13.71 g/m*3 21.06 C 8.263 km/h
196 15-07-2015 00:00:00 21.59368 C 14.37 g/m*3 21.59 C 3.19509 km/h
197 16-07-2015 00:00:00 24.00382 C 15.6 g/m*3 24 C 2.825 km/h
198 17-07-2015 00:00:00 28.34301 C 13.92 g/m*3 28.34 C 6.7625 km/h
199 18-07-2015 00:00:00 23.63602 C 13.33 g/m*3 23.64 C 4.35364 km/h
200 19-07-2015 00:00:00 21.84756 C 15 g/m*3 21.85 C 9.45915 km/h
Sensor: Nr:Datum:Temp:Abs-Feuchte:Windchill:Wind:
Aussen-T/F 201 20-07-2015 00:00:00 22.02667 C 17.14 g/m*3 22.03 C 2.74111 km/h
202 21-07-2015 00:00:00 26.21048 C 17.06 g/m*3 26.21 C 7.56905 km/h
203 22-07-2015 00:00:00 23.3275 C 15.6 g/m*3 23.33 C 4.95786 km/h
204 23-07-2015 00:00:00 20.60312 C 11.63 g/m*3 20.6 C 3.97951 km/h
205 24-07-2015 00:00:00 21.45543 C 13.09 g/m*3 21.46 C 2.75019 km/h
206 25-07-2015 00:00:00 17.38849 C 11.54 g/m*3 17.39 C 14.05833 km/h
207 26-07-2015 00:00:00 15.82244 C 9.7 g/m*3 15.82 C 4.18346 km/h
208 27-07-2015 00:00:00 17.63472 C 12.21 g/m*3 17.63 C 9.7966 km/h
209 28-07-2015 00:00:00 17.16294 C 9.35 g/m*3 17.16 C 10.46993 km/h
210 29-07-2015 00:00:00 17.78846 C 8.49 g/m*3 17.79 C 11.15337 km/h
211 30-07-2015 00:00:00 14.2708 C 9.1 g/m*3 14.27 C 4.6504 km/h
212 31-07-2015 00:00:00 16.9314 C 9.38 g/m*3 16.93 C 5.00248 km/h
213 01-08-2015 00:00:00 19.24097 C 9.77 g/m*3 19.24 C 3.18611 km/h
214 02-08-2015 00:00:00 20.84722 C 11.2 g/m*3 20.85 C 2.96215 km/h
215 03-08-2015 00:00:00 23.19217 C 11.97 g/m*3 23.19 C 2.56121 km/h
216 04-08-2015 00:00:00 19.03299 C 13.35 g/m*3 19.03 C 2.14097 km/h
217 05-08-2015 00:00:00 19.79201 C 13 g/m*3 19.79 C 2.64896 km/h
218 06-08-2015 00:00:00 24 C 14.41 g/m*3 24 C 2.29306 km/h
219 07-08-2015 00:00:00 26.94306 C 15.74 g/m*3 26.94 C 4.86319 km/h
220 08-08-2015 00:00:00 22.82014 C 16.12 g/m*3 22.82 C 7.64722 km/h
221 09-08-2015 00:00:00 21.98785 C 15.08 g/m*3 21.99 C 4.37951 km/h
222 10-08-2015 00:00:00 19.76944 C 14.19 g/m*3 19.77 C 6.14722 km/h
223 11-08-2015 00:00:00 21.91979 C 14.38 g/m*3 21.92 C 4.83785 km/h
224 12-08-2015 00:00:00 23.09896 C 16.01 g/m*3 23.1 C 2.70799 km/h
225 13-08-2015 00:00:00 25.32292 C 16.59 g/m*3 25.32 C 3.5309 km/h
Sensor: Nr:Datum:Temp:Abs-Feuchte:Windchill:Wind:
Aussen-T/F 226 14-08-2015 00:00:00 24.17396 C 15.24 g/m*3 24.17 C 6.74931 km/h
227 15-08-2015 00:00:00 20.86319 C 13.16 g/m*3 20.86 C 5.55521 km/h
228 16-08-2015 00:00:00 15.85799 C 12.14 g/m*3 15.86 C 6.10729 km/h
229 17-08-2015 00:00:00 14.78889 C 11.49 g/m*3 14.79 C 4.3691 km/h
230 18-08-2015 00:00:00 15.90625 C 11.24 g/m*3 15.91 C 2.56424 km/h
231 19-08-2015 00:00:00 15.71493 C 10.47 g/m*3 15.71 C 2.33299 km/h
232 20-08-2015 00:00:00 18.10382 C 11.45 g/m*3 18.1 C 1.67674 km/h
233 21-08-2015 00:00:00 18.85764 C 11.34 g/m*3 18.86 C 2.75104 km/h
234 22-08-2015 00:00:00 19.10729 C 10.54 g/m*3 19.11 C 2.82569 km/h
235 23-08-2015 00:00:00 19.89722 C 10.95 g/m*3 19.9 C 3.72222 km/h
236 24-08-2015 00:00:00 19.22187 C 13.77 g/m*3 19.22 C 4.04201 km/h
237 25-08-2015 00:00:00 17.40729 C 10.13 g/m*3 17.41 C 12.29826 km/h
238 26-08-2015 00:00:00 20.71458 C 11.74 g/m*3 20.71 C 3.90903 km/h
239 27-08-2015 00:00:00 18.60486 C 13.26 g/m*3 18.6 C 2.13576 km/h
240 28-08-2015 00:00:00 16.57292 C 12.59 g/m*3 16.57 C 1.19444 km/h
241 29-08-2015 00:00:00 19.31181 C 14.67 g/m*3 19.31 C 1.17778 km/h
242 30-08-2015 00:00:00 23.12396 C 17.13 g/m*3 23.12 C 2.16944 km/h
243 31-08-2015 00:00:00 24.2934 C 15.43 g/m*3 24.29 C 4.46146 km/h
244 01-09-2015 00:00:00 17.4059 C 13.49 g/m*3 17.41 C 3.24479 km/h
245 02-09-2015 00:00:00 15.13229 C 10.98 g/m*3 15.13 C 2.85486 km/h
246 03-09-2015 00:00:00 13.95937 C 10.2 g/m*3 13.96 C 2.56146 km/h
247 04-09-2015 00:00:00 13.54792 C 9.34 g/m*3 13.55 C 5.00938 km/h
248 05-09-2015 00:00:00 13.21701 C 9.71 g/m*3 13.22 C 6.23715 km/h
249 06-09-2015 00:00:00 13.11632 C 8.46 g/m*3 13.12 C 7.49757 km/h
250 07-09-2015 00:00:00 13.56493 C 10.22 g/m*3 13.56 C 4.39688 km/h
Sensor: Nr:Datum:Temp:Abs-Feuchte:Windchill:Wind:
Aussen-T/F 251 08-09-2015 00:00:00 15.09236 C 10.95 g/m*3 15.09 C 2.85278 km/h
252 09-09-2015 00:00:00 15.60139 C 10.14 g/m*3 15.6 C 3.82535 km/h
253 10-09-2015 00:00:00 13.23854 C 8.82 g/m*3 13.24 C 2.77292 km/h
254 11-09-2015 00:00:00 13.19792 C 9.1 g/m*3 13.2 C 2.08646 km/h
255 12-09-2015 00:00:00 15.35312 C 10.97 g/m*3 15.35 C 1.38229 km/h
256 13-09-2015 00:00:00 17.07153 C 13.46 g/m*3 17.07 C 0.89479 km/h
257 14-09-2015 00:00:00 15.52639 C 12.15 g/m*3 15.53 C 2.93785 km/h
258 15-09-2015 00:00:00 12.94931 C 9.85 g/m*3 12.95 C 3.50556 km/h
259 16-09-2015 00:00:00 15.01667 C 12.03 g/m*3 15.02 C 3.48611 km/h
260 17-09-2015 00:00:00 14.6566 C 11.45 g/m*3 14.66 C 3.67326 km/h
261 18-09-2015 00:00:00 14.53542 C 10.66 g/m*3 14.54 C 3.74826 km/h
262 19-09-2015 00:00:00 14.32292 C 10.73 g/m*3 14.32 C 2.64097 km/h
263 20-09-2015 00:00:00 13.77188 C 10.08 g/m*3 13.77 C 2.38264 km/h
264 21-09-2015 00:00:00 12.22847 C 9.74 g/m*3 12.23 C 0.46667 km/h
265 22-09-2015 00:00:00 13.06701 C 10.43 g/m*3 13.07 C 1.30278 km/h
266 23-09-2015 00:00:00 11.92535 C 9.9 g/m*3 11.93 C 3.5316 km/h
267 24-09-2015 00:00:00 13.09618 C 10.37 g/m*3 13.1 C 1.9934 km/h
268 25-09-2015 00:00:00 13.95278 C 10.49 g/m*3 13.95 C 0.97118 km/h
269 26-09-2015 00:00:00 12.73889 C 9.95 g/m*3 12.74 C 1.28576 km/h
270 27-09-2015 00:00:00 11.29236 C 8.54 g/m*3 11.29 C 1.94583 km/h
271 28-09-2015 00:00:00 10.50729 C 8.01 g/m*3 10.51 C 2.25382 km/h
272 29-09-2015 00:00:00 10.96979 C 8.11 g/m*3 10.97 C 3.25278 km/h
273 30-09-2015 00:00:00 10.73368 C 7.67 g/m*3 10.73 C 3.43715 km/h
274 01-10-2015 00:00:00 9.88646 C 6.98 g/m*3 9.89 C 3.38507 km/h
275 02-10-2015 00:00:00 9.21528 C 7.62 g/m*3 9.22 C 0.94618 km/h
Sensor: Nr:Datum:Temp:Abs-Feuchte:Windchill:Wind:
Aussen-T/F 276 03-10-2015 00:00:00 11.40139 C 8.82 g/m*3 11.4 C 1.27222 km/h
277 04-10-2015 00:00:00 12.61562 C 10.13 g/m*3 12.62 C 1.9809 km/h
278 05-10-2015 00:00:00 11.96597 C 9.83 g/m*3 11.97 C 1.7125 km/h
279 06-10-2015 00:00:00 15.93854 C 12.94 g/m*3 15.94 C 0.42917 km/h
280 07-10-2015 00:00:00 14.99028 C 11.46 g/m*3 14.99 C 5.1559 km/h
281 08-10-2015 00:00:00 13.45521 C 10.14 g/m*3 13.46 C 2.19653 km/h
282 09-10-2015 00:00:00 12.29618 C 10.14 g/m*3 12.3 C 0 km/h
283 10-10-2015 00:00:00 12.19271 C 9.48 g/m*3 12.19 C 0.57431 km/h
284 11-10-2015 00:00:00 8.37431 C 6.51 g/m*3 8.37 C 1.58021 km/h
285 12-10-2015 00:00:00 5.28229 C 5.72 g/m*3 5.28 C 0.71736 km/h
286 13-10-2015 00:00:00 4.33542 C 5.86 g/m*3 4.34 C 1.61458 km/h
287 14-10-2015 00:00:00 3.63333 C 5.89 g/m*3 3.63 C 0.71146 km/h
288 15-10-2015 00:00:00 4.25694 C 6.16 g/m*3 4.26 C 1.93507 km/h
289 16-10-2015 00:00:00 6.52431 C 6.94 g/m*3 6.52 C 1.46458 km/h
290 17-10-2015 00:00:00 6.99375 C 6.93 g/m*3 6.99 C 1 km/h
291 18-10-2015 00:00:00 7.25556 C 7.17 g/m*3 7.26 C 0.95 km/h
292 19-10-2015 00:00:00 8.22361 C 7.69 g/m*3 8.22 C 1.03958 km/h
293 20-10-2015 00:00:00 9.33576 C 8.46 g/m*3 9.34 C 0.45069 km/h
294 21-10-2015 00:00:00 9.83611 C 8.52 g/m*3 9.84 C 1.21667 km/h
295 22-10-2015 00:00:00 11.18472 C 8.96 g/m*3 11.18 C 8.28507 km/h
296 23-10-2015 00:00:00 10.26979 C 9.08 g/m*3 10.27 C 0.17222 km/h
297 24-10-2015 00:00:00 11.03438 C 9 g/m*3 11.03 C 0.73368 km/h
298 25-10-2015 00:00:00 11.68229 C 9.68 g/m*3 11.68 C 0.58889 km/h
299 26-10-2015 00:00:00 9.55312 C 8.65 g/m*3 9.55 C 0.28889 km/h
300 27-10-2015 00:00:00 8.10278 C 7.88 g/m*3 8.1 C 1.62569 km/h
Sensor: Nr:Datum:Temp:Abs-Feuchte:Windchill:Wind:
Aussen-T/F 301 28-10-2015 00:00:00 9.54444 C 8.36 g/m*3 9.54 C 1.79028 km/h
302 29-10-2015 00:00:00 10.48299 C 8.97 g/m*3 10.48 C 1.20903 km/h
303 30-10-2015 00:00:00 7.79965 C 7.82 g/m*3 7.8 C 0.28889 km/h
304 31-10-2015 00:00:00 7.27118 C 7.41 g/m*3 7.27 C 0.64479 km/h
305 01-11-2015 00:00:00 6.57708 C 7.25 g/m*3 6.58 C 0.75556 km/h
306 02-11-2015 00:00:00 4.67431 C 6.43 g/m*3 4.67 C 1.35556 km/h
307 03-11-2015 00:00:00 4.99896 C 6.47 g/m*3 5 C 1.56806 km/h
308 04-11-2015 00:00:00 7.79549 C 7.68 g/m*3 7.8 C 0.67847 km/h
309 05-11-2015 00:00:00 10.38299 C 9.17 g/m*3 10.38 C 1.47778 km/h
310 06-11-2015 00:00:00 13.31493 C 10.74 g/m*3 13.31 C 2.45069 km/h
311 07-11-2015 00:00:00 16.40417 C 13.14 g/m*3 16.4 C 3.42743 km/h
312 08-11-2015 00:00:00 12.97292 C 10.78 g/m*3 12.97 C 0.76736 km/h
313 09-11-2015 00:00:00 14.80846 C 10.55 g/m*3 14.81 C 10.27647 km/h
314 10-11-2015 00:00:00 13.07951 C 9.59 g/m*3 13.08 C 12.67535 km/h
315 11-11-2015 00:00:00 11.7066 C 8.85 g/m*3 11.71 C 6.13819 km/h
316 12-11-2015 00:00:00 11.71562 C 9.17 g/m*3 11.72 C 3.59722 km/h
317 13-11-2015 00:00:00 10.51875 C 8.58 g/m*3 9.76 C 7.30035 km/h
318 14-11-2015 00:00:00 8.91806 C 7.32 g/m*3 6.93 C 12.46215 km/h
319 15-11-2015 00:00:00 12.53854 C 9.28 g/m*3 12.54 C 18.02743 km/h
320 16-11-2015 00:00:00 11.63438 C 8.73 g/m*3 11.63 C 10.97813 km/h
321 17-11-2015 00:00:00 14.03889 C 10.8 g/m*3 14.04 C 13.5 km/h
322 18-11-2015 00:00:00 13.87604 C 8.79 g/m*3 13.88 C 17.09375 km/h
323 19-11-2015 00:00:00 12.23611 C 9.29 g/m*3 12.24 C 10.3066 km/h
324 20-11-2015 00:00:00 7.64444 C 7.65 g/m*3 7.64 C 3.58889 km/h
325 21-11-2015 00:00:00 3.88021 C 5.76 g/m*3 3.88 C 4.17569 km/h
Sensor: Nr:Datum:Temp:Abs-Feuchte:Windchill:Wind:
Aussen-T/F 326 22-11-2015 00:00:00 2.85139 C 5.37 g/m*3 1.4 C 5.60278 km/h
327 23-11-2015 00:00:00 2.48125 C 5.27 g/m*3 2.48 C 3.1934 km/h
328 24-11-2015 00:00:00 1.88785 C 4.96 g/m*3 1.89 C 4.01563 km/h
329 25-11-2015 00:00:00 4.63646 C 6.08 g/m*3 2.98 C 7.02708 km/h
330 26-11-2015 00:00:00 4.92257 C 6.25 g/m*3 4.92 C 2.59896 km/h
331 27-11-2015 00:00:00 2.23299 C 5.35 g/m*3 2.23 C 2.08993 km/h
332 28-11-2015 00:00:00 4.42821 C 5.6 g/m*3 1.91 C 10.29393 km/h
333 29-11-2015 00:00:00 9.10451 C 7.64 g/m*3 6.08 C 21.68403 km/h
334 30-11-2015 00:00:00 9.89514 C 8.43 g/m*3 7.74 C 15.40035 km/h
335 01-12-2015 00:00:00 11.24618 C 9.4 g/m*3 11.25 C 10.56458 km/h
336 02-12-2015 00:00:00 9.85729 C 8.19 g/m*3 9.86 C 1.80208 km/h
337 03-12-2015 00:00:00 7.55664 C 6.94 g/m*3 7.56 C 1.60629 km/h
338 04-12-2015 00:00:00 6.93333 C 7.06 g/m*3 5.75 C 6.68646 km/h
339 05-12-2015 00:00:00 6.05903 C 6.54 g/m*3 4.49 C 7.55139 km/h
340 06-12-2015 00:00:00 8.44861 C 7.39 g/m*3 7.28 C 7.59097 km/h
341 07-12-2015 00:00:00 8.35868 C 7.84 g/m*3 8.36 C 1.87917 km/h
342 08-12-2015 00:00:00 4.51007 C 6.4 g/m*3 4.51 C 0.85 km/h
343 09-12-2015 00:00:00 6.58229 C 7.14 g/m*3 6.58 C 3.36493 km/h
344 10-12-2015 00:00:00 3.22882 C 5.65 g/m*3 3.23 C 2.40347 km/h
345 11-12-2015 00:00:00 4.75451 C 6.18 g/m*3 2.45 C 9.61979 km/h
346 12-12-2015 00:00:00 8.05903 C 7.91 g/m*3 7.48 C 5.2125 km/h
347 13-12-2015 00:00:00 8.6316 C 7.83 g/m*3 7.23 C 8.80417 km/h
348 14-12-2015 00:00:00 5.9875 C 7 g/m*3 5.99 C 1.04549 km/h
349 15-12-2015 00:00:00 5.6816 C 6.84 g/m*3 5.68 C 1.11667 km/h
350 16-12-2015 00:00:00 9.66146 C 8.96 g/m*3 9.66 C 2.47604 km/h
Sensor: Nr:Datum:Temp:Abs-Feuchte:Windchill:Wind:
Aussen-T/F 351 17-12-2015 00:00:00 12.51647 C 10.36 g/m*3 12.52 C 4.37059 km/h
352 18-12-2015 00:00:00 11.17396 C 9.5 g/m*3 11.17 C 2.91597 km/h
353 19-12-2015 00:00:00 11.26667 C 9.34 g/m*3 11.27 C 3.77917 km/h
354 20-12-2015 00:00:00 7.84687 C 7.9 g/m*3 7.85 C 1.09028 km/h
355 21-12-2015 00:00:00 10.07014 C 8.31 g/m*3 8.46 C 11.56111 km/h
356 22-12-2015 00:00:00 11.62281 C 8.59 g/m*3 11.62 C 13.49167 km/h
357 23-12-2015 00:00:00 10.964 C 8.09 g/m*3 9.44 C 12.34 km/h
358 24-12-2015 00:00:00 11.76867 C 8.94 g/m*3 11.77 C 4.42651 km/h
359 25-12-2015 00:00:00 11.08646 C 8.85 g/m*3 11.09 C 7.30069 km/h
360 26-12-2015 00:00:00 10.37257 C 8.43 g/m*3 10.37 C 4.32431 km/h
361 27-12-2015 00:00:00 7.5375 C 7.44 g/m*3 7.54 C 3.68646 km/h
362 28-12-2015 00:00:00 2.6941 C 5.65 g/m*3 2.69 C 0.47778 km/h
363 29-12-2015 00:00:00 3.10521 C 5.85 g/m*3 3.11 C 0.46667 km/h
364 30-12-2015 00:00:00 4.88299 C 6.33 g/m*3 4.88 C 2.96042 km/h
365 31-12-2015 00:00:00 5.0934 C 6.36 g/m*3 5.09 C 3.2441 km/h
366 01-01-2016 00:00:00 4.17222 C 6.15 g/m*3 4.17 C 1.30278 km/h
367 02-01-2016 00:00:00 4.50451 C 6.16 g/m*3 4.5 C 1.85208 km/h
368 03-01-2016 00:00:00 5.64826 C 6.55 g/m*3 5.65 C 3.79965 km/h
369 04-01-2016 00:00:00 5.3184 C 6.56 g/m*3 5.32 C 3.03924 km/h
370 05-01-2016 00:00:00 6.45694 C 6.85 g/m*3 6.46 C 1.4566 km/h
371 06-01-2016 00:00:00 5.95903 C 6.83 g/m*3 5.96 C 0.60556 km/h
372 07-01-2016 00:00:00 5.04028 C 6.41 g/m*3 3.91 C 5.5941 km/h
373 08-01-2016 00:00:00 3.28646 C 5.5 g/m*3 1.43 C 6.97708 km/h
374 09-01-2016 00:00:00 1.12292 C 5.09 g/m*3 1.12 C 1.22847 km/h
375 10-01-2016 00:00:00 6.27708 C 6.79 g/m*3 6.28 C 3.98229 km/h
Sensor: Nr:Datum:Temp:Abs-Feuchte:Windchill:Wind:
Aussen-T/F 376 11-01-2016 00:00:00 5.25729 C 6.54 g/m*3 5.26 C 4.40035 km/h
377 12-01-2016 00:00:00 5.58229 C 6.27 g/m*3 3.62 C 8.79861 km/h
378 13-01-2016 00:00:00 4.93333 C 6.09 g/m*3 2.17 C 12.0125 km/h
379 14-01-2016 00:00:00 3.31701 C 5.42 g/m*3 1.94 C 5.59792 km/h
380 15-01-2016 00:00:00 2.89062 C 5.35 g/m*3 0.27 C 9.44896 km/h
381 16-01-2016 00:00:00 2.0875 C 5.08 g/m*3 0.14 C 6.65208 km/h
382 17-01-2016 00:00:00 0.26424 C 4.14 g/m*3 -1.76 C 6.09167 km/h
383 18-01-2016 00:00:00 -4.85799 C 3.12 g/m*3 -4.86 C 0.90556 km/h
384 19-01-2016 00:00:00 -5.27882 C 2.99 g/m*3 -5.28 C 1.33924 km/h
385 20-01-2016 00:00:00 -1.61806 C 3.96 g/m*3 -1.62 C 1.96979 km/h
386 21-01-2016 00:00:00 0.6684 C 4.72 g/m*3 0.67 C 0.78333 km/h
387 22-01-2016 00:00:00 -2.10729 C 3.85 g/m*3 -2.11 C 1.59896 km/h
388 23-01-2016 00:00:00 4.1559 C 6.09 g/m*3 2.93 C 5.5125 km/h
389 24-01-2016 00:00:00 5.37396 C 6.53 g/m*3 5.37 C 3.36563 km/h
390 25-01-2016 00:00:00 7.51076 C 7.47 g/m*3 7.51 C 4.75208 km/h
391 26-01-2016 00:00:00 9.35729 C 7.71 g/m*3 8.04 C 9.04132 km/h
392 27-01-2016 00:00:00 11.44792 C 7.26 g/m*3 11.45 C 16.6875 km/h
393 28-01-2016 00:00:00 7.3625 C 6.82 g/m*3 6.72 C 5.12465 km/h
394 29-01-2016 00:00:00 5.64583 C 6.1 g/m*3 3.49 C 9.70278 km/h
395 30-01-2016 00:00:00 7.42914 C 6.92 g/m*3 4.54 C 16.56115 km/h
396 31-01-2016 00:00:00 6.31944 C 6.62 g/m*3 4.36 C 9.38715 km/h
397 01-02-2016 00:00:00 11.92326 C 8.95 g/m*3 11.92 C 14.6375 km/h
398 02-02-2016 00:00:00 10.40035 C 8.35 g/m*3 8.45 C 14.65347 km/h
399 03-02-2016 00:00:00 5.14306 C 5.84 g/m*3 3.59 C 6.96458 km/h
400 04-02-2016 00:00:00 4.62118 C 6.01 g/m*3 2.49 C 8.79722 km/h
Sensor: Nr:Datum:Temp:Abs-Feuchte:Windchill:Wind:
Aussen-T/F 401 05-02-2016 00:00:00 7.46076 C 7.29 g/m*3 7.46 C 4.875 km/h
402 06-02-2016 00:00:00 8.36806 C 7.32 g/m*3 8.37 C 3.02396 km/h
403 07-02-2016 00:00:00 9.22743 C 6.87 g/m*3 7.72 C 9.9434 km/h
404 08-02-2016 00:00:00 8.09062 C 6.69 g/m*3 5.43 C 15.98715 km/h
405 09-02-2016 00:00:00 7.11076 C 6.71 g/m*3 4.82 C 11.93611 km/h
406 10-02-2016 00:00:00 4.86562 C 5.73 g/m*3 1.99 C 12.54861 km/h
407 11-02-2016 00:00:00 4.89444 C 5.89 g/m*3 3.44 C 6.51493 km/h
408 12-02-2016 00:00:00 3.0316 C 5.12 g/m*3 3.03 C 3.83229 km/h
409 13-02-2016 00:00:00 1.57049 C 5.05 g/m*3 1.57 C 1.75382 km/h
410 14-02-2016 00:00:00 4.64965 C 6.31 g/m*3 4.65 C 1.65833 km/h
411 15-02-2016 00:00:00 2.20278 C 5.17 g/m*3 0.18 C 6.92604 km/h
412 16-02-2016 00:00:00 0.19792 C 4 g/m*3 0.2 C 4.80347 km/h
413 17-02-2016 00:00:00 0.40625 C 4.42 g/m*3 0.41 C 1.11354 km/h
414 18-02-2016 00:00:00 2.11285 C 4.78 g/m*3 2.11 C 1.88403 km/h
415 19-02-2016 00:00:00 1.43507 C 4.94 g/m*3 1.44 C 1.79132 km/h
416 20-02-2016 00:00:00 6.41528 C 6.88 g/m*3 4.34 C 10.04688 km/h
417 21-02-2016 00:00:00 11.8375 C 9.29 g/m*3 11.84 C 19.7559 km/h
418 22-02-2016 00:00:00 9.57778 C 7.79 g/m*3 6.94 C 19.04375 km/h
419 23-02-2016 00:00:00 2.26424 C 5.42 g/m*3 2.26 C 2.19931 km/h
420 24-02-2016 00:00:00 2.15243 C 5.12 g/m*3 2.15 C 2.99653 km/h
421 25-02-2016 00:00:00 0.66597 C 4.58 g/m*3 0.67 C 1.97604 km/h
422 26-02-2016 00:00:00 2.36771 C 4.87 g/m*3 2.37 C 1.93194 km/h
423 27-02-2016 00:00:00 2.35694 C 4.4 g/m*3 2.36 C 4.01389 km/h
424 28-02-2016 00:00:00 2.12509 C 4.34 g/m*3 0.51 C 5.752 km/h
425 29-02-2016 00:00:00 3.32569 C 4.3 g/m*3 1.03 C 8.49444 km/h
Sensor: Nr:Datum:Temp:Abs-Feuchte:Windchill:Wind:
Aussen-T/F 426 01-03-2016 00:00:00 1.1875 C 4.3 g/m*3 1.19 C 4.82743 km/h
427 02-03-2016 00:00:00 6.5125 C 6.26 g/m*3 4.97 C 7.76389 km/h
428 03-03-2016 00:00:00 3.61736 C 5.39 g/m*3 3.62 C 4.92292 km/h
429 04-03-2016 00:00:00 1.76528 C 5.11 g/m*3 1.77 C 3.03507 km/h
430 05-03-2016 00:00:00 4.32153 C 5.98 g/m*3 4.32 C 3.54306 km/h
431 06-03-2016 00:00:00 3.0434 C 5.62 g/m*3 3.04 C 3.70764 km/h
432 07-03-2016 00:00:00 2.40347 C 5.35 g/m*3 2.4 C 2.66667 km/h
433 08-03-2016 00:00:00 1.75521 C 4.95 g/m*3 1.76 C 2.84097 km/h
434 09-03-2016 00:00:00 2.60799 C 4.81 g/m*3 1.23 C 5.33681 km/h
435 10-03-2016 00:00:00 2.73576 C 4.9 g/m*3 2.74 C 2.80417 km/h
436 11-03-2016 00:00:00 4.25868 C 5.4 g/m*3 4.26 C 2.82014 km/h
437 12-03-2016 00:00:00 4.36424 C 5.09 g/m*3 3.26 C 5.26736 km/h
438 13-03-2016 00:00:00 5.06944 C 5.28 g/m*3 3.37 C 7.41285 km/h
439 14-03-2016 00:00:00 4.20451 C 4.58 g/m*3 2.54 C 6.83576 km/h
440 15-03-2016 00:00:00 3.53264 C 4.97 g/m*3 3.53 C 2.67674 km/h
441 16-03-2016 00:00:00 4.7066 C 4.87 g/m*3 2.57 C 8.85417 km/h
442 17-03-2016 00:00:00 4.57049 C 4.96 g/m*3 4.57 C 3.32569 km/h
443 18-03-2016 00:00:00 3.8934 C 5.25 g/m*3 2.71 C 5.29132 km/h
444 19-03-2016 00:00:00 5.67465 C 6.19 g/m*3 5.67 C 4.12708 km/h
445 20-03-2016 00:00:00 5.89583 C 5.84 g/m*3 5.9 C 4.43819 km/h
446 21-03-2016 00:00:00 7.0625 C 6.6 g/m*3 7.06 C 4.04618 km/h
447 22-03-2016 00:00:00 8.10035 C 6.63 g/m*3 7.32 C 5.88576 km/h
448 23-03-2016 00:00:00 7.93438 C 6.74 g/m*3 7.08 C 6.075 km/h
449 24-03-2016 00:00:00 7.05069 C 6.68 g/m*3 7.05 C 3.08299 km/h
450 25-03-2016 00:00:00 6.93125 C 7.14 g/m*3 6.19 C 5.24757 km/h
Sensor: Nr:Datum:Temp:Abs-Feuchte:Windchill:Wind:
Aussen-T/F 451 26-03-2016 00:00:00 9.02778 C 7.29 g/m*3 9.03 C 4.58472 km/h
452 27-03-2016 00:00:00 9.36558 C 7.41 g/m*3 8.35 C 7.60652 km/h
453 28-03-2016 00:00:00 8.24167 C 7.09 g/m*3 7.12 C 7.24271 km/h
454 29-03-2016 00:00:00 9.19792 C 6.63 g/m*3 7.33 C 12.05243 km/h
455 30-03-2016 00:00:00 9.98958 C 7.96 g/m*3 9.4 C 6.21979 km/h
456 31-03-2016 00:00:00 7.10243 C 7.23 g/m*3 7.1 C 3.58125 km/h
457 01-04-2016 00:00:00 7.02396 C 6.6 g/m*3 7.02 C 4.7941 km/h
458 02-04-2016 00:00:00 8.56007 C 7.31 g/m*3 8.56 C 3.34965 km/h
459 03-04-2016 00:00:00 13.56285 C 9.55 g/m*3 13.56 C 3.94826 km/h
460 04-04-2016 00:00:00 13.63299 C 9.65 g/m*3 13.63 C 4.78125 km/h
461 05-04-2016 00:00:00 11.25069 C 9.41 g/m*3 11.25 C 2.32188 km/h
462 06-04-2016 00:00:00 10.87153 C 7.88 g/m*3 9.61 C 10.36528 km/h
463 07-04-2016 00:00:00 8.49479 C 6.46 g/m*3 7.22 C 8.07847 km/h
464 08-04-2016 00:00:00 6.48403 C 5.96 g/m*3 6.48 C 4.08576 km/h
465 09-04-2016 00:00:00 8.00139 C 5.98 g/m*3 8 C 3.26736 km/h
466 10-04-2016 00:00:00 11.74757 C 7.34 g/m*3 11.75 C 5.60764 km/h
467 11-04-2016 00:00:00 12.00972 C 7.52 g/m*3 12.01 C 6.07257 km/h
468 12-04-2016 00:00:00 11.31181 C 8.06 g/m*3 11.31 C 2.89931 km/h
469 13-04-2016 00:00:00 8.81354 C 8.18 g/m*3 8.81 C 1.54549 km/h
470 14-04-2016 00:00:00 10.59722 C 7.87 g/m*3 10.6 C 3.04132 km/h
471 15-04-2016 00:00:00 13.04618 C 8.43 g/m*3 13.05 C 8.64861 km/h
472 16-04-2016 00:00:00 11.99514 C 8.68 g/m*3 12 C 5.71181 km/h
473 17-04-2016 00:00:00 8.41111 C 6.55 g/m*3 7.51 C 6.47222 km/h
474 18-04-2016 00:00:00 7.11632 C 5.83 g/m*3 7.12 C 3.50174 km/h
475 19-04-2016 00:00:00 8.83507 C 6.34 g/m*3 8.06 C 6.28056 km/h
Sensor: Nr:Datum:Temp:Abs-Feuchte:Windchill:Wind:
Aussen-T/F 476 20-04-2016 00:00:00 9.1559 C 5.92 g/m*3 9.16 C 4.81944 km/h
477 21-04-2016 00:00:00 11.43229 C 6.61 g/m*3 11.43 C 3.48229 km/h
478 22-04-2016 00:00:00 13.17674 C 7.13 g/m*3 13.18 C 4.56215 km/h
479 23-04-2016 00:00:00 7.88299 C 6.42 g/m*3 6.72 C 7.17014 km/h
480 24-04-2016 00:00:00 5.24444 C 5.42 g/m*3 3.81 C 6.62014 km/h
481 25-04-2016 00:00:00 4.71632 C 5.73 g/m*3 2.48 C 9.30625 km/h
482 26-04-2016 00:00:00 4.5934 C 5.49 g/m*3 2.37 C 9.12188 km/h
483 27-04-2016 00:00:00 5.57465 C 5.53 g/m*3 2.62 C 13.95313 km/h
484 28-04-2016 00:00:00 6.65 C 5.38 g/m*3 5.16 C 7.65451 km/h
485 29-04-2016 00:00:00 7.88056 C 5.67 g/m*3 7.28 C 5.22118 km/h
486 30-04-2016 00:00:00 7.70174 C 6.76 g/m*3 7.7 C 4.92257 km/h
487 01-05-2016 00:00:00 10.10486 C 7.71 g/m*3 9.02 C 8.56563 km/h
488 02-05-2016 00:00:00 12.06389 C 7.84 g/m*3 12.06 C 3.13125 km/h
489 03-05-2016 00:00:00 10.93785 C 7.55 g/m*3 10.54 C 6.03889 km/h
490 04-05-2016 00:00:00 9.10035 C 6.07 g/m*3 9.1 C 3.39722 km/h
491 05-05-2016 00:00:00 11.45347 C 6.94 g/m*3 11.45 C 5.61111 km/h
492 06-05-2016 00:00:00 15.34618 C 8.99 g/m*3 15.35 C 3.5191 km/h
493 07-05-2016 00:00:00 16.83542 C 9.35 g/m*3 16.84 C 3.77639 km/h
494 08-05-2016 00:00:00 18.59861 C 8.36 g/m*3 18.6 C 6.17118 km/h
495 09-05-2016 00:00:00 18.28715 C 9.64 g/m*3 18.29 C 4.85347 km/h
496 10-05-2016 00:00:00 17.08646 C 11.29 g/m*3 17.09 C 2.05694 km/h
497 11-05-2016 00:00:00 17.43438 C 11.28 g/m*3 17.43 C 3.74167 km/h
498 12-05-2016 00:00:00 17.84271 C 10.63 g/m*3 17.84 C 3.61076 km/h
499 13-05-2016 00:00:00 14.31736 C 11.02 g/m*3 14.32 C 1.31528 km/h
500 14-05-2016 00:00:00 10.45972 C 6.96 g/m*3 9.24 C 9.66181 km/h
Sensor: Nr:Datum:Temp:Abs-Feuchte:Windchill:Wind:
Aussen-T/F 501 15-05-2016 00:00:00 9.07743 C 6.2 g/m*3 7.84 C 8.38542 km/h
502 16-05-2016 00:00:00 9.98819 C 6.62 g/m*3 9.74 C 5.00868 km/h
503 17-05-2016 00:00:00 12.31563 C 7.5 g/m*3 12.32 C 4.92674 km/h
504 18-05-2016 00:00:00 14.47535 C 9.2 g/m*3 14.48 C 2.50486 km/h
505 19-05-2016 00:00:00 14.04722 C 9.15 g/m*3 14.05 C 3.41319 km/h
506 20-05-2016 00:00:00 14.08125 C 9.66 g/m*3 14.08 C 6.56632 km/h
507 21-05-2016 00:00:00 17.67708 C 11.23 g/m*3 17.68 C 3.4191 km/h
508 22-05-2016 00:00:00 18.70312 C 11.68 g/m*3 18.7 C 4.71528 km/h
509 23-05-2016 00:00:00 14.01632 C 10.05 g/m*3 14.02 C 8.33854 km/h
510 24-05-2016 00:00:00 10.97431 C 9.13 g/m*3 10.54 C 6.22292 km/h
511 25-05-2016 00:00:00 12.7125 C 9.75 g/m*3 12.71 C 1.23403 km/h
512 26-05-2016 00:00:00 14.89826 C 10.33 g/m*3 14.9 C 2.10938 km/h
513 27-05-2016 00:00:00 16.77849 C 12.94 g/m*3 16.78 C 2.11235 km/h
514 28-05-2016 00:00:00 18.08383 C 13.72 g/m*3 18.08 C 1.43892 km/h
515 29-05-2016 00:00:00 17.36528 C 13.25 g/m*3 17.37 C 1.68576 km/h
516 30-05-2016 00:00:00 17.49722 C 13.9 g/m*3 17.5 C 3.48194 km/h
517 31-05-2016 00:00:00 16.51458 C 12.3 g/m*3 16.51 C 2.34271 km/h
518 01-06-2016 00:00:00 15.69931 C 12.67 g/m*3 15.7 C 1.12917 km/h
519 02-06-2016 00:00:00 17.51979 C 13.73 g/m*3 17.52 C 1.64792 km/h
520 03-06-2016 00:00:00 16.76875 C 13.51 g/m*3 16.77 C 0.8066 km/h
521 04-06-2016 00:00:00 17.85104 C 13.83 g/m*3 17.85 C 1.83611 km/h
522 05-06-2016 00:00:00 19.18611 C 14.67 g/m*3 19.19 C 2.33264 km/h
523 06-06-2016 00:00:00 19.18785 C 14.33 g/m*3 19.19 C 1.64375 km/h
524 07-06-2016 00:00:00 19.88403 C 14.1 g/m*3 19.88 C 1.38819 km/h
525 08-06-2016 00:00:00 19.56354 C 13.01 g/m*3 19.56 C 5.36771 km/h
Sensor: Nr:Datum:Temp:Abs-Feuchte:Windchill:Wind:
Aussen-T/F 526 09-06-2016 00:00:00 17.3191 C 10.55 g/m*3 17.32 C 7.32188 km/h
527 10-06-2016 00:00:00 16.15521 C 9.83 g/m*3 16.16 C 3.07674 km/h
528 11-06-2016 00:00:00 17.56701 C 11.15 g/m*3 17.57 C 1.75139 km/h
529 12-06-2016 00:00:00 17.18299 C 12.73 g/m*3 17.18 C 2.86944 km/h
530 13-06-2016 00:00:00 15.94479 C 12.88 g/m*3 15.94 C 2.57049 km/h
531 14-06-2016 00:00:00 16.36597 C 12.24 g/m*3 16.37 C 4.14965 km/h
532 15-06-2016 00:00:00 15.42431 C 11.44 g/m*3 15.42 C 2.73958 km/h
533 16-06-2016 00:00:00 13.77292 C 11.13 g/m*3 13.77 C 1.25069 km/h
534 17-06-2016 00:00:00 14.68889 C 11.42 g/m*3 14.69 C 4.26632 km/h
535 18-06-2016 00:00:00 14.84861 C 11.11 g/m*3 14.85 C 5.13299 km/h
536 19-06-2016 00:00:00 15.40278 C 9.98 g/m*3 15.4 C 5.27639 km/h
537 20-06-2016 00:00:00 14.61979 C 10.26 g/m*3 14.62 C 4.06076 km/h
538 21-06-2016 00:00:00 18.21736 C 13.77 g/m*3 18.22 C 4.22604 km/h
539 22-06-2016 00:00:00 20.84792 C 15.95 g/m*3 20.85 C 1.36458 km/h
540 23-06-2016 00:00:00 23.76528 C 17.5 g/m*3 23.77 C 2.17743 km/h
541 24-06-2016 00:00:00 22.11979 C 17.68 g/m*3 22.12 C 1.67535 km/h
542 25-06-2016 00:00:00 16.85451 C 13.76 g/m*3 16.85 C 2.71215 km/h
543 26-06-2016 00:00:00 15.41562 C 11.23 g/m*3 15.42 C 5.33646 km/h
544 27-06-2016 00:00:00 15.91562 C 11.76 g/m*3 15.92 C 6.02951 km/h
545 28-06-2016 00:00:00 18.26597 C 13.16 g/m*3 18.27 C 2.94618 km/h
546 29-06-2016 00:00:00 19.04444 C 12.18 g/m*3 19.04 C 5.90799 km/h
547 30-06-2016 00:00:00 18.7566 C 12.98 g/m*3 18.76 C 4.27639 km/h
548 01-07-2016 00:00:00 19.88194 C 13.91 g/m*3 19.88 C 5.11597 km/h
549 02-07-2016 00:00:00 16.90868 C 11.32 g/m*3 16.91 C 5.75972 km/h
550 03-07-2016 00:00:00 15.21559 C 10.85 g/m*3 15.22 C 3.62129 km/h
Sensor: Nr:Datum:Temp:Abs-Feuchte:Windchill:Wind:
Aussen-T/F 551 04-07-2016 00:00:00 17.43333 C 12.31 g/m*3 17.43 C 2.40035 km/h
552 05-07-2016 00:00:00 19.40903 C 13.05 g/m*3 19.41 C 6.85694 km/h
553 06-07-2016 00:00:00 16.61042 C 10.46 g/m*3 16.61 C 3.5809 km/h
554 07-07-2016 00:00:00 17.08576 C 11.33 g/m*3 17.09 C 1.45799 km/h
555 08-07-2016 00:00:00 18.87222 C 13.06 g/m*3 18.87 C 2.11215 km/h
556 09-07-2016 00:00:00 21.08889 C 14.05 g/m*3 21.09 C 2.50556 km/h
557 10-07-2016 00:00:00 21.92535 C 15.31 g/m*3 21.93 C 2.22326 km/h
558 11-07-2016 00:00:00 21.61701 C 14 g/m*3 21.62 C 5.9316 km/h
559 12-07-2016 00:00:00 19.06354 C 12.22 g/m*3 19.06 C 4.50729 km/h
560 13-07-2016 00:00:00 14.71319 C 11.51 g/m*3 14.71 C 1.97951 km/h
561 14-07-2016 00:00:00 14.94583 C 10.15 g/m*3 14.95 C 5.28056 km/h
562 15-07-2016 00:00:00 16.08229 C 10.14 g/m*3 16.08 C 4.43993 km/h
563 16-07-2016 00:00:00 16.98542 C 12.01 g/m*3 16.99 C 1.86806 km/h
564 17-07-2016 00:00:00 21.34757 C 15.03 g/m*3 21.35 C 3.00486 km/h
565 18-07-2016 00:00:00 21.85069 C 14.51 g/m*3 21.85 C 2.12431 km/h
566 19-07-2016 00:00:00 21.61667 C 14.84 g/m*3 21.62 C 0.9684 km/h
567 20-07-2016 00:00:00 23.34097 C 15.69 g/m*3 23.34 C 1.97986 km/h
568 21-07-2016 00:00:00 21.23924 C 16.1 g/m*3 21.24 C 2.89375 km/h
569 22-07-2016 00:00:00 20.96806 C 16.23 g/m*3 20.97 C 1.53993 km/h
570 23-07-2016 00:00:00 20.3434 C 16.14 g/m*3 20.34 C 1.57465 km/h
571 24-07-2016 00:00:00 22.0941 C 16.68 g/m*3 22.09 C 2.27569 km/h
572 25-07-2016 00:00:00 21.8191 C 15.69 g/m*3 21.82 C 2.61076 km/h
573 26-07-2016 00:00:00 20.20208 C 15.1 g/m*3 20.2 C 2.69201 km/h
574 27-07-2016 00:00:00 19.62986 C 13.7 g/m*3 19.63 C 3.30104 km/h
575 28-07-2016 00:00:00 20.20174 C 14.48 g/m*3 20.2 C 2.89757 km/h
Sensor: Nr:Datum:Temp:Abs-Feuchte:Windchill:Wind:
Aussen-T/F 576 29-07-2016 00:00:00 19.81042 C 14.55 g/m*3 19.81 C 3.70729 km/h
577 30-07-2016 00:00:00 20.55278 C 14.05 g/m*3 20.55 C 2.95729 km/h
578 31-07-2016 00:00:00 18.14444 C 12.51 g/m*3 18.14 C 4.30451 km/h
579 01-08-2016 00:00:00 16.63958 C 11.11 g/m*3 16.64 C 1.70278 km/h
580 02-08-2016 00:00:00 16.16875 C 12.7 g/m*3 16.17 C 4.31354 km/h
581 03-08-2016 00:00:00 18.55174 C 14.93 g/m*3 18.55 C 6.0625 km/h
582 04-08-2016 00:00:00 18.01667 C 14.56 g/m*3 18.02 C 0.58958 km/h
583 05-08-2016 00:00:00 16.58403 C 12.5 g/m*3 16.58 C 2.53715 km/h
584 06-08-2016 00:00:00 17.59097 C 12.95 g/m*3 17.59 C 1.78924 km/h
585 07-08-2016 00:00:00 18.92153 C 13.21 g/m*3 18.92 C 2.58958 km/h
586 08-08-2016 00:00:00 19.25521 C 12.85 g/m*3 19.26 C 5.84826 km/h
587 09-08-2016 00:00:00 16.42986 C 10.1 g/m*3 16.43 C 4.77396 km/h
588 10-08-2016 00:00:00 13.02465 C 9.09 g/m*3 13.02 C 4.35625 km/h
589 11-08-2016 00:00:00 12.3 C 9.07 g/m*3 12.3 C 5.73854 km/h
590 12-08-2016 00:00:00 17.31701 C 13.39 g/m*3 17.32 C 4.90347 km/h
591 13-08-2016 00:00:00 20.62604 C 14.05 g/m*3 20.63 C 3.9 km/h
592 14-08-2016 00:00:00 19.08924 C 13.19 g/m*3 19.09 C 2.6816 km/h
593 15-08-2016 00:00:00 18.95451 C 12.68 g/m*3 18.95 C 3.03299 km/h
594 16-08-2016 00:00:00 18.07778 C 11.6 g/m*3 18.08 C 2.27361 km/h
595 17-08-2016 00:00:00 18.14653 C 11.37 g/m*3 18.15 C 2.66528 km/h
596 18-08-2016 00:00:00 17.22743 C 12.05 g/m*3 17.23 C 0.74688 km/h
597 19-08-2016 00:00:00 19.36181 C 13.9 g/m*3 19.36 C 2.4625 km/h
598 20-08-2016 00:00:00 18.84757 C 13.43 g/m*3 18.85 C 2.42188 km/h
599 21-08-2016 00:00:00 17.07361 C 11.68 g/m*3 17.07 C 7.83993 km/h
600 22-08-2016 00:00:00 17.30799 C 12.39 g/m*3 17.31 C 3.70174 km/h
Sensor: Nr:Datum:Temp:Abs-Feuchte:Windchill:Wind:
Aussen-T/F 601 23-08-2016 00:00:00 19.09167 C 12.74 g/m*3 19.09 C 1.35799 km/h
602 24-08-2016 00:00:00 20.54583 C 13.8 g/m*3 20.55 C 1.6559 km/h
603 25-08-2016 00:00:00 21.59896 C 14.45 g/m*3 21.6 C 1.6125 km/h
604 26-08-2016 00:00:00 22.53715 C 15.38 g/m*3 22.54 C 0.78472 km/h
605 27-08-2016 00:00:00 23.96528 C 17.1 g/m*3 23.97 C 0.79618 km/h
606 28-08-2016 00:00:00 23.4684 C 15.21 g/m*3 23.47 C 5.46597 km/h
607 29-08-2016 00:00:00 18.98993 C 12.9 g/m*3 18.99 C 3.00486 km/h
608 30-08-2016 00:00:00 18.11736 C 11.72 g/m*3 18.12 C 2.57639 km/h
609 31-08-2016 00:00:00 17.84514 C 11.8 g/m*3 17.85 C 0.65625 km/h
610 01-09-2016 00:00:00 19.62431 C 12.79 g/m*3 19.62 C 2.53993 km/h
611 02-09-2016 00:00:00 18.78785 C 12.67 g/m*3 18.79 C 1.46806 km/h
612 03-09-2016 00:00:00 20.71944 C 13.27 g/m*3 20.72 C 2.49201 km/h
613 04-09-2016 00:00:00 18.18681 C 12.69 g/m*3 18.19 C 7.97361 km/h
614 05-09-2016 00:00:00 17.73715 C 11.99 g/m*3 17.74 C 4.46667 km/h
615 06-09-2016 00:00:00 16.62882 C 11.62 g/m*3 16.63 C 1.43576 km/h
616 07-09-2016 00:00:00 17.39792 C 11.9 g/m*3 17.4 C 1.70382 km/h
617 08-09-2016 00:00:00 19.44722 C 13.34 g/m*3 19.45 C 2.21597 km/h
618 09-09-2016 00:00:00 20.12222 C 12.28 g/m*3 20.12 C 2.89306 km/h
619 10-09-2016 00:00:00 19.21944 C 13.38 g/m*3 19.22 C 0.42222 km/h
620 11-09-2016 00:00:00 18.8684 C 12.37 g/m*3 18.87 C 1.37778 km/h
621 12-09-2016 00:00:00 19.58437 C 13.34 g/m*3 19.58 C 1.25278 km/h
622 13-09-2016 00:00:00 21.20937 C 14.42 g/m*3 21.21 C 1.18785 km/h
623 14-09-2016 00:00:00 20.91319 C 13.56 g/m*3 20.91 C 1.53472 km/h
624 15-09-2016 00:00:00 20.02847 C 13.21 g/m*3 20.03 C 4.13264 km/h
625 16-09-2016 00:00:00 17.33889 C 12.64 g/m*3 17.34 C 2.82431 km/h
Sensor: Nr:Datum:Temp:Abs-Feuchte:Windchill:Wind:
Aussen-T/F 626 17-09-2016 00:00:00 15.96146 C 11.56 g/m*3 15.96 C 2.91424 km/h
627 18-09-2016 00:00:00 17.13993 C 13.13 g/m*3 17.14 C 4.16354 km/h
628 19-09-2016 00:00:00 15.49201 C 11.16 g/m*3 15.49 C 2.20799 km/h
629 20-09-2016 00:00:00 14.8184 C 11.22 g/m*3 14.82 C 0.8 km/h
630 21-09-2016 00:00:00 13.86563 C 9.39 g/m*3 13.87 C 1.70347 km/h
631 22-09-2016 00:00:00 11.70625 C 8.86 g/m*3 11.71 C 0.63576 km/h
632 23-09-2016 00:00:00 13.62518 C 10.21 g/m*3 13.63 C 0.01702 km/h
633 24-09-2016 00:00:00 13.82326 C 10.17 g/m*3 13.82 C 0.84097 km/h
634 25-09-2016 00:00:00 14.39201 C 10.56 g/m*3 14.39 C 1.67674 km/h
635 26-09-2016 00:00:00 14.99062 C 11.03 g/m*3 14.99 C 0.40139 km/h
636 27-09-2016 00:00:00 13.42847 C 10.86 g/m*3 13.43 C 0.12222 km/h
637 28-09-2016 00:00:00 15.2816 C 11.17 g/m*3 15.28 C 4.6566 km/h
638 29-09-2016 00:00:00 18.69375 C 12.7 g/m*3 18.69 C 5.92396 km/h
639 30-09-2016 00:00:00 15.12813 C 11.51 g/m*3 15.13 C 1.18021 km/h
640 01-10-2016 00:00:00 13.55804 C 11.23 g/m*3 13.56 C 0.52587 km/h
641 02-10-2016 00:00:00 12.49271 C 9.82 g/m*3 12.49 C 6.24479 km/h
642 03-10-2016 00:00:00 12.49236 C 10.15 g/m*3 12.49 C 2.64826 km/h
643 04-10-2016 00:00:00 10.89931 C 9.33 g/m*3 10.9 C 0.37222 km/h
644 05-10-2016 00:00:00 8.62465 C 7.17 g/m*3 8.62 C 3.4184 km/h
645 06-10-2016 00:00:00 7.98125 C 7.3 g/m*3 7.98 C 1.63958 km/h
646 07-10-2016 00:00:00 10.85069 C 9.27 g/m*3 10.85 C 0.34444 km/h
647 08-10-2016 00:00:00 9.28854 C 8.45 g/m*3 9.29 C 0.40625 km/h
648 09-10-2016 00:00:00 8.50868 C 7.85 g/m*3 8.51 C 0.21146 km/h
649 10-10-2016 00:00:00 6.46875 C 6.95 g/m*3 6.47 C 0.38889 km/h
650 11-10-2016 00:00:00 7.98993 C 7.51 g/m*3 7.99 C 1.21667 km/h
Sensor: Nr:Datum:Temp:Abs-Feuchte:Windchill:Wind:
Aussen-T/F 651 12-10-2016 00:00:00 8.69201 C 7.83 g/m*3 8.69 C 0.93507 km/h
652 13-10-2016 00:00:00 7.54583 C 7.04 g/m*3 7.55 C 2.58194 km/h
653 14-10-2016 00:00:00 9.31042 C 7.89 g/m*3 9.31 C 1.58194 km/h
654 15-10-2016 00:00:00 11.21667 C 9.22 g/m*3 11.22 C 2.99965 km/h
655 16-10-2016 00:00:00 8.72222 C 8.26 g/m*3 8.72 C 0.40556 km/h
656 17-10-2016 00:00:00 10.64132 C 9.45 g/m*3 10.64 C 0.17778 km/h
657 18-10-2016 00:00:00 11.33924 C 9.45 g/m*3 11.34 C 3.02188 km/h
658 19-10-2016 00:00:00 9.26389 C 7.99 g/m*3 8.32 C 7.18681 km/h
659 20-10-2016 00:00:00 8.03368 C 7.95 g/m*3 8.03 C 1.24826 km/h
660 21-10-2016 00:00:00 7.65845 C 7.76 g/m*3 7.66 C 1.02511 km/h
661 22-10-2016 00:00:00 7.80729 C 7.84 g/m*3 7.81 C 2.44306 km/h
662 23-10-2016 00:00:00 6.84236 C 7.31 g/m*3 6.84 C 1.7 km/h
663 24-10-2016 00:00:00 9.37778 C 8.76 g/m*3 9.38 C 0.28333 km/h
664 25-10-2016 00:00:00 11.21424 C 9.72 g/m*3 11.21 C 1.01875 km/h
665 26-10-2016 00:00:00 9.47049 C 8.55 g/m*3 9.47 C 0.85243 km/h
666 27-10-2016 00:00:00 8.9309 C 8.37 g/m*3 8.93 C 1.37604 km/h
667 28-10-2016 00:00:00 11.35833 C 9.38 g/m*3 11.36 C 4.07743 km/h
668 29-10-2016 00:00:00 11.58854 C 9.4 g/m*3 11.59 C 2.28542 km/h
669 30-10-2016 00:00:00 7.61215 C 7.73 g/m*3 7.61 C 0.49444 km/h
670 31-10-2016 00:00:00 7.10417 C 7.49 g/m*3 7.1 C 0.10556 km/h
671 01-11-2016 00:00:00 6.92431 C 7.48 g/m*3 6.92 C 0.89063 km/h
672 02-11-2016 00:00:00 7.39618 C 7.29 g/m*3 7.4 C 3.47292 km/h
673 03-11-2016 00:00:00 6.31493 C 6.81 g/m*3 6.31 C 2.9 km/h
674 04-11-2016 00:00:00 4.72674 C 6.33 g/m*3 4.73 C 0.3 km/h
675 05-11-2016 00:00:00 6.88299 C 7.44 g/m*3 6.88 C 0.87257 km/h
Sensor: Nr:Datum:Temp:Abs-Feuchte:Windchill:Wind:
Aussen-T/F 676 06-11-2016 00:00:00 5.54201 C 6.31 g/m*3 4.31 C 6.11597 km/h
677 07-11-2016 00:00:00 4.69097 C 6.23 g/m*3 4.69 C 3.11146 km/h
678 08-11-2016 00:00:00 3.20521 C 5.57 g/m*3 3.21 C 2.39514 km/h
679 09-11-2016 00:00:00 3.69722 C 5.89 g/m*3 3.7 C 2.31771 km/h
680 10-11-2016 00:00:00 5.22847 C 6.54 g/m*3 5.23 C 2.58542 km/h
681 11-11-2016 00:00:00 5.08785 C 6.58 g/m*3 5.09 C 2.63056 km/h
682 12-11-2016 00:00:00 2.06181 C 5.19 g/m*3 2.06 C 1.9184 km/h
683 13-11-2016 00:00:00 2.12049 C 5.13 g/m*3 2.12 C 2.10451 km/h
684 14-11-2016 00:00:00 -0.38611 C 4.39 g/m*3 -0.39 C 1.52813 km/h
685 15-11-2016 00:00:00 4.75208 C 6.22 g/m*3 3.27 C 6.53194 km/h
686 16-11-2016 00:00:00 9.88715 C 8.93 g/m*3 8.75 C 8.59306 km/h
687 17-11-2016 00:00:00 10.99757 C 8.95 g/m*3 9.88 C 9.64896 km/h
688 18-11-2016 00:00:00 9.44792 C 7.77 g/m*3 7.84 C 10.76076 km/h
689 19-11-2016 00:00:00 5.51319 C 6.16 g/m*3 5.51 C 3.72778 km/h
690 20-11-2016 00:00:00 9.3559 C 7.32 g/m*3 8.14 C 8.54931 km/h
691 21-11-2016 00:00:00 10.27813 C 8.8 g/m*3 10.28 C 2.57014 km/h
692 22-11-2016 00:00:00 10.22222 C 8.94 g/m*3 10.22 C 1.64514 km/h
693 23-11-2016 00:00:00 8.56389 C 8.32 g/m*3 8.56 C 0.12222 km/h
694 24-11-2016 00:00:00 8.79306 C 8.23 g/m*3 8.79 C 1.57917 km/h
695 25-11-2016 00:00:00 7.72222 C 6.93 g/m*3 7.14 C 5.09792 km/h
696 26-11-2016 00:00:00 6.87708 C 6.79 g/m*3 6.88 C 0.27778 km/h
697 27-11-2016 00:00:00 5.11215 C 6.36 g/m*3 5.11 C 1.85521 km/h
698 28-11-2016 00:00:00 -0.13333 C 4.49 g/m*3 -0.13 C 1.78438 km/h
699 29-11-2016 00:00:00 -2.74097 C 3.64 g/m*3 -2.74 C 1.72222 km/h
700 30-11-2016 00:00:00 -2.71076 C 3.69 g/m*3 -2.71 C 1.01771 km/h
Sensor: Nr:Datum:Temp:Abs-Feuchte:Windchill:Wind:
Aussen-T/F 701 01-12-2016 00:00:00 3.3875 C 5.16 g/m*3 0.78 C 9.80556 km/h
702 02-12-2016 00:00:00 5.17361 C 6.45 g/m*3 5.17 C 2.76354 km/h
703 03-12-2016 00:00:00 -0.32882 C 4.59 g/m*3 -0.33 C 2.02917 km/h
704 04-12-2016 00:00:00 -2.61215 C 3.88 g/m*3 -2.61 C 1.47292 km/h
705 05-12-2016 00:00:00 -3.83507 C 3.53 g/m*3 -3.84 C 0.65 km/h
706 06-12-2016 00:00:00 -3.15903 C 3.71 g/m*3 -3.16 C 0.57778 km/h
707 07-12-2016 00:00:00 -0.29965 C 4.56 g/m*3 -0.3 C 0.27222 km/h
708 08-12-2016 00:00:00 1.07778 C 4.95 g/m*3 1.08 C 2.55556 km/h
709 09-12-2016 00:00:00 6.58819 C 6.37 g/m*3 5.15 C 7.38924 km/h
710 10-12-2016 00:00:00 5.04201 C 6.25 g/m*3 5.04 C 4.33819 km/h
711 11-12-2016 00:00:00 8.10174 C 7.12 g/m*3 6.39 C 9.87257 km/h
712 12-12-2016 00:00:00 6.76563 C 7.1 g/m*3 6.77 C 1.32951 km/h
713 13-12-2016 00:00:00 4.10868 C 6.17 g/m*3 4.11 C 1.04167 km/h
714 14-12-2016 00:00:00 6.42569 C 7.15 g/m*3 6.43 C 0.89549 km/h
715 15-12-2016 00:00:00 6.89583 C 7.26 g/m*3 6.9 C 0.63333 km/h
716 16-12-2016 00:00:00 4.60451 C 5.84 g/m*3 4.6 C 2.72708 km/h
717 17-12-2016 00:00:00 3.86806 C 5.78 g/m*3 3.87 C 0.55556 km/h
718 18-12-2016 00:00:00 5.3059 C 6.54 g/m*3 5.31 C 0.92257 km/h
719 19-12-2016 00:00:00 4.3816 C 5.83 g/m*3 4.38 C 2.62361 km/h
720 20-12-2016 00:00:00 1.0875 C 4.79 g/m*3 1.09 C 2 km/h
721 21-12-2016 00:00:00 2.26076 C 5.2 g/m*3 2.26 C 1.12882 km/h
722 22-12-2016 00:00:00 3.84896 C 5.9 g/m*3 3.85 C 0.97778 km/h
723 23-12-2016 00:00:00 4.14757 C 6.13 g/m*3 4.15 C 2.37257 km/h
724 24-12-2016 00:00:00 7.17188 C 6.79 g/m*3 4.93 C 11.77674 km/h
725 25-12-2016 00:00:00 8.5434 C 7.64 g/m*3 6.34 C 13.35556 km/h
Sensor: Nr:Datum:Temp:Abs-Feuchte:Windchill:Wind:
Aussen-T/F 726 26-12-2016 00:00:00 7.71215 C 7.16 g/m*3 5.85 C 10.23472 km/h
727 27-12-2016 00:00:00 4.30139 C 5.76 g/m*3 3.07 C 5.57049 km/h
728 28-12-2016 00:00:00 3.53819 C 5.55 g/m*3 3.54 C 2.41285 km/h
729 29-12-2016 00:00:00 -1.78438 C 4.12 g/m*3 -1.78 C 0.58333 km/h
730 30-12-2016 00:00:00 -2.37014 C 3.96 g/m*3 -2.37 C 1.05556 km/h
731 31-12-2016 00:00:00 -4.09028 C 3.48 g/m*3 -4.09 C 0.72778 km/h

Maximal/Minimal-Werte vom 01.01.2015 - 31.12.2016

Sensor Min Max Avg
Temp
(Aussen-T/F)
-7.7 °C
20-01-2016  00:35:00
38.6 °C
04-07-2015  16:30:00
11.08 °C
Abs-Feuchte
(Aussen-T/F)
2.99 g/m*3
19-01-2016  00:00:00
18.22 g/m*3
04-07-2015  00:00:00
8.78 g/m*3
Windchill
(Aussen-T/F)
-5.28 C
19-01-2016  00:00:00
28.34 C
17-07-2015  00:00:00
10.76 C

Die Daten stammen von einer Davis Vantage Pro 2 Wetter-Station und werden unter Linux mit der Software wview2wettercgi und aufbereitet. Alle Angaben erfolgen ohne Gewähr für ihre Vollständigkeit oder Richtigkeit.
Kontakt: Rainer Krienke krienke@uni-koblenz.de . Meine Webseiten an der Uni Koblenz oder privat.
Version: $Revision: 0.78 $